map of PHNG home
Great Circle Mapper logo
PHNG - Airport
Location
City:  Kaneohe, Oahu, Hawaii, United States
Name:Kaneohe Bay MCAS
Old (Alt.):Marion E. Carl Field
ICAO:PHNG
FAA:NGF

Details
Type:Airport (Airfield)
Use:Military
Latitude:2127'02"N (21.450456)
Longitude:15746'05"W (-157.767948)
Datum:WGS 1984
Elevation:23 ft (7 m)
Runways:1
Longest:7772 × 200 ft (2369 × 61 m), paved

Time
Time Zone:UTC-10
Local Time:

Weather
METAR:PHNG 011757Z 00000KT 8SM FEW019 SCT025 25/23 A3003 RMK AO2 SLP164 T02500228 10250 20250 53014 $

Related Locations
Nearby:
Farthest:GNZ: 12405 mi / 19965 km
Ghanzi, BW

Find:

   beyond  
but within

Other Information
Maps:
NOTAMs:
Links:
Sources:

  
flag of United States
flag of Hawaii
  

Airport Diagram

Airport diagram for PHNG

Airport diagram (OBSOLETE) from NGA

Sectional Chart

Flight Planning
at skyvector.com

Satellite Image

Google Maps Satellite View

 

Copyright © 2004-2014 Karl L. Swartz. All rights reserved.
The Great Circle Mapper name and logo are trademarks of the Great Circle Mapper.
All other trademarks mentioned herein belong to their respective owners.
Please see credits for attibutions and further copyright information.

  Follow gcmap on Facebook Follow gcmap on Twitter

hCard Microformat

Geo Microformat